Kimball, NE

5:36 AM MST on December 03, 2016 (GMT -0700)
Kimball Municipal-Arraj

Weather History for KIBM - March, 2013

Change the Weather History Date:

Saturday, March 2, 2013

  Actual Average (KSNY) Record (KSNY)
Temperature  
Mean Temperature 46 °F 36 °F  
Max Temperature 55 °F 49 °F 74 °F (1974)
Min Temperature 37 °F 22 °F -22 °F (1960)
Degree Days  
Heating Degree Days 19 29  
Month to date heating degree days 59  
Since 1 July heating degree days 4641  
Cooling Degree Days 0 0  
Month to date cooling degree days 0  
Year to date cooling degree days 0  
Moisture  
Dew Point 30 °F    
Average Humidity 58    
Maximum Humidity 77    
Minimum Humidity 36    
Precipitation  
Precipitation 0.00 in 0.01 in 0.22 in (1988)
Month to date precipitation 0.03  
Year to date precipitation 0.55  
Sea Level Pressure  
Sea Level Pressure 30.17 in    
Wind  
Wind Speed 18 mph (WNW)    
Max Wind Speed 25 mph    
Max Gust Speed 33 mph    
Visibility 10 miles    
Events      
T = Trace of Precipitation, MM = Missing Value Source: NWS Daily Summary

Daily Weather History Graph

Daily Weather History Graph

Search for Another Location

Airport or City:

Trip Planner

Search our weather history database for the weather conditions in past years. The results will help you decide how hot, cold, wet, or windy it might be!

Date:

Astronomy

Mar. 02, 2013 Rise Set
Actual Time 7:27 AM CST 6:47 PM CST
Civil Twilight 6:59 AM CST 7:14 PM CST
Nautical Twilight 6:27 AM CST 7:46 PM CST
Astronomical Twilight 5:55 AM CST 8:18 PM CST
Moon No Moon Rise 9:53 AM CST (3/2)
Length of Visible Light 12h 15m
Length of Day
11h 20m
Waning Gibbous, 74% of the Moon is Illuminated
Mar 2
Waning Gibbous
Mar 4
Last Quarter
Mar 11
New
Mar 19
First Quarter
Mar 27
Full

Hourly Weather History & Observations

Time (CST) Temp. Windchill Dew Point Humidity Pressure Visibility Wind Dir Wind Speed Gust Speed Precip Events Conditions
12:15 AM 38.7 °F 29.8 °F 32.0 °F 77% 30.22 in 10.0 mi WNW 16.1 mph - N/A   Overcast
12:35 AM 39.4 °F 30.7 °F 31.8 °F 74% 30.22 in 10.0 mi WNW 16.1 mph - N/A   Overcast
12:55 AM 39.2 °F 30.8 °F 31.8 °F 75% 30.22 in 10.0 mi WNW 15.0 mph - N/A   Overcast
1:15 AM 39.7 °F 30.9 °F 31.6 °F 73% 30.22 in 10.0 mi WNW 17.3 mph - N/A   Overcast
1:35 AM 39.6 °F 31.0 °F 31.5 °F 73% 30.22 in 10.0 mi WNW 16.1 mph - N/A   Overcast
1:55 AM 38.5 °F 29.6 °F 31.5 °F 76% 30.22 in 10.0 mi WNW 16.1 mph - N/A   Overcast
2:15 AM 38.3 °F 28.7 °F 31.1 °F 75% 30.22 in 10.0 mi WNW 18.4 mph - N/A   Mostly Cloudy
2:35 AM 38.1 °F 29.5 °F 31.1 °F 76% 30.22 in 10.0 mi WNW 15.0 mph - N/A   Scattered Clouds
2:55 AM 38.7 °F 29.1 °F 31.1 °F 74% 30.21 in 10.0 mi WNW 18.4 mph 24.2 mph N/A   Mostly Cloudy
3:15 AM 39.2 °F 29.6 °F 30.7 °F 72% 30.21 in 10.0 mi WNW 19.6 mph - N/A   Scattered Clouds
3:35 AM 38.8 °F 29.1 °F 30.2 °F 71% 30.21 in 10.0 mi WNW 19.6 mph 24.2 mph N/A   Clear
3:55 AM 37.9 °F 28.9 °F 30.2 °F 74% 30.21 in 10.0 mi WNW 16.1 mph - N/A   Clear
4:15 AM 37.6 °F 28.4 °F 30.0 °F 74% 30.21 in 10.0 mi WNW 16.1 mph - N/A   Clear
4:35 AM 37.2 °F 28.3 °F 29.8 °F 75% 30.21 in 10.0 mi WNW 15.0 mph - N/A   Clear
4:55 AM 37.6 °F 27.7 °F 29.8 °F 74% 30.21 in 10.0 mi WNW 18.4 mph - N/A   Clear
5:15 AM 39.2 °F 28.3 °F 29.3 °F 68% 30.21 in 10.0 mi WNW 25.3 mph 31.1 mph N/A   Clear
5:55 AM 38.7 °F 27.8 °F 29.1 °F 69% 30.21 in 10.0 mi WNW 24.2 mph 29.9 mph N/A   Clear
6:15 AM 37.8 °F 27.1 °F 29.1 °F 71% 30.22 in 10.0 mi WNW 21.9 mph - N/A   Clear
6:35 AM 38.7 °F 28.3 °F 28.8 °F 68% 30.21 in 10.0 mi WNW 21.9 mph 27.6 mph N/A   Clear
6:55 AM 38.7 °F 28.6 °F 28.4 °F 67% 30.21 in 10.0 mi WNW 20.7 mph 26.5 mph N/A   Clear
7:15 AM 38.3 °F 28.1 °F 28.6 °F 68% 30.21 in 10.0 mi WNW 20.7 mph 26.5 mph N/A   Clear
7:35 AM 38.5 °F 28.1 °F 28.4 °F 67% 30.21 in 10.0 mi WNW 21.9 mph 26.5 mph N/A   Clear
7:55 AM 38.3 °F 27.8 °F 28.8 °F 69% 30.22 in 10.0 mi WNW 21.9 mph 28.8 mph N/A   Clear
8:15 AM 40.1 °F 29.9 °F 28.4 °F 63% 30.21 in 10.0 mi NW 23.0 mph - N/A   Clear
8:35 AM 40.1 °F 30.2 °F 28.9 °F 64% 30.21 in 10.0 mi WNW 21.9 mph 27.6 mph N/A   Clear
8:55 AM 40.3 °F 30.2 °F 29.1 °F 64% 30.21 in 10.0 mi WNW 23.0 mph 27.6 mph N/A   Clear
9:15 AM 41.2 °F 31.6 °F 28.8 °F 61% 30.21 in 10.0 mi WNW 21.9 mph - N/A   Clear
9:35 AM 41.5 °F 31.9 °F 28.8 °F 60% 30.21 in 10.0 mi WNW 23.0 mph 27.6 mph N/A   Clear
9:55 AM 42.3 °F 33.3 °F 29.3 °F 60% 30.22 in 10.0 mi WNW 20.7 mph 25.3 mph N/A   Clear
10:15 AM 43.0 °F 34.8 °F 29.8 °F 60% 30.22 in 10.0 mi WNW 18.4 mph - N/A   Clear
10:35 AM 45.7 °F 37.6 °F 29.7 °F 54% 30.22 in 10.0 mi WNW 21.9 mph 27.6 mph N/A   Clear
10:55 AM 47.1 °F - 30.2 °F 52% 30.22 in 10.0 mi WNW 21.9 mph 28.8 mph N/A   Clear
11:15 AM 48.2 °F - 30.0 °F 49% 30.22 in 10.0 mi WNW 21.9 mph 28.8 mph N/A   Clear
11:35 AM 48.7 °F - 30.0 °F 48% 30.21 in 10.0 mi NW 19.6 mph - N/A   Clear
11:55 AM 49.6 °F - 30.4 °F 48% 30.21 in 10.0 mi WNW 24.2 mph 31.1 mph N/A   Clear
12:15 PM 50.9 °F - 30.4 °F 45% 30.20 in 10.0 mi WNW 23.0 mph 33.4 mph N/A   Clear
12:35 PM 51.6 °F - 30.6 °F 45% 30.20 in 10.0 mi NW 20.7 mph 24.2 mph N/A   Clear
12:55 PM 52.7 °F - 31.1 °F 44% 30.20 in 10.0 mi NW 18.4 mph 31.1 mph N/A   Clear
1:15 PM 52.9 °F - 30.6 °F 43% 30.19 in 10.0 mi NW 19.6 mph 25.3 mph N/A   Clear
1:35 PM 53.8 °F - 31.3 °F 42% 30.17 in 10.0 mi WNW 20.7 mph 26.5 mph N/A   Clear
1:55 PM 54.1 °F - 31.1 °F 41% 30.17 in 10.0 mi WNW 20.7 mph 29.9 mph N/A   Clear
2:15 PM 54.3 °F - 30.7 °F 41% 30.16 in 10.0 mi NW 19.6 mph 28.8 mph N/A   Clear
2:35 PM 54.5 °F - 30.2 °F 39% 30.15 in 10.0 mi NW 18.4 mph 25.3 mph N/A   Clear
2:55 PM 54.9 °F - 30.0 °F 39% 30.15 in 10.0 mi WNW 21.9 mph 26.5 mph N/A   Clear
3:15 PM 54.7 °F - 29.5 °F 38% 30.15 in 10.0 mi NW 20.7 mph 29.9 mph N/A   Clear
3:35 PM 55.2 °F - 29.1 °F 37% 30.14 in 10.0 mi NW 19.6 mph 28.8 mph N/A   Clear
3:55 PM 55.4 °F - 29.3 °F 37% 30.14 in 10.0 mi WNW 20.7 mph 26.5 mph N/A   Clear
4:15 PM 55.4 °F - 29.1 °F 37% 30.14 in 10.0 mi WNW 20.7 mph 26.5 mph N/A   Clear
4:35 PM 54.7 °F - 28.0 °F 36% 30.13 in 10.0 mi NW 16.1 mph 23.0 mph N/A   Clear
4:55 PM 54.9 °F - 29.1 °F 37% 30.12 in 10.0 mi WNW 19.6 mph 25.3 mph N/A   Clear
5:15 PM 54.0 °F - 30.2 °F 40% 30.12 in 10.0 mi WNW 21.9 mph 26.5 mph N/A   Clear
5:35 PM 53.2 °F - 30.4 °F 42% 30.12 in 10.0 mi WNW 17.3 mph 26.5 mph N/A   Clear
5:55 PM 51.6 °F - 30.2 °F 44% 30.12 in 10.0 mi WNW 18.4 mph - N/A   Clear
6:15 PM 50.9 °F - 30.4 °F 45% 30.12 in 10.0 mi WNW 15.0 mph - N/A   Clear
6:35 PM 48.7 °F - 31.6 °F 52% 30.12 in 10.0 mi WNW 13.8 mph - N/A   Clear
6:55 PM 46.4 °F 41.1 °F 31.8 °F 57% 30.12 in 10.0 mi WNW 11.5 mph - N/A   Clear
7:15 PM 44.6 °F 38.4 °F 31.6 °F 60% 30.12 in 10.0 mi WNW 12.7 mph - N/A   Clear
7:35 PM 44.6 °F 38.4 °F 31.1 °F 59% 30.11 in 10.0 mi WNW 12.7 mph - N/A   Clear
7:55 PM 43.5 °F 36.4 °F 31.1 °F 62% 30.12 in 10.0 mi WNW 15.0 mph - N/A   Clear
8:15 PM 43.2 °F 36.6 °F 30.9 °F 62% 30.11 in 10.0 mi WNW 12.7 mph - N/A   Clear
8:35 PM 43.7 °F 37.7 °F 30.2 °F 59% 30.11 in 10.0 mi WNW 11.5 mph - N/A   Clear
8:55 PM 43.5 °F 37.9 °F 29.8 °F 59% 30.10 in 10.0 mi WNW 10.4 mph - N/A   Clear
9:15 PM 43.5 °F 38.3 °F 28.9 °F 56% 30.09 in 10.0 mi NW 9.2 mph - N/A   Clear
9:35 PM 44.6 °F 38.8 °F 28.4 °F 53% 30.08 in 10.0 mi NW 11.5 mph - N/A   Clear
9:55 PM 44.6 °F 38.8 °F 28.2 °F 53% 30.08 in 10.0 mi NW 11.5 mph - N/A   Clear
10:15 PM 42.6 °F 37.8 °F 28.4 °F 57% 30.07 in 10.0 mi WNW 8.1 mph - N/A   Clear
10:35 PM 42.1 °F 37.7 °F 28.4 °F 58% 30.06 in 10.0 mi WNW 6.9 mph - N/A   Clear
10:55 PM 37.2 °F 33.6 °F 29.1 °F 73% 30.06 in 10.0 mi West 4.6 mph - N/A   Clear
11:15 PM 38.8 °F 32.6 °F 29.3 °F 69% 30.05 in 10.0 mi West 9.2 mph - N/A   Clear
11:35 PM 37.8 °F 31.3 °F 29.8 °F 73% 30.04 in 10.0 mi WSW 9.2 mph - N/A   Clear
11:55 PM 37.9 °F 32.1 °F 29.3 °F 71% 30.03 in 10.0 mi West 8.1 mph - N/A   Clear